Home   Weather   Dinslaken   Past weeks

Flag for Germany Past Weather in Dinslaken, North Rhine-Westphalia, Germany — Yesterday and Last 2 Weeks

Now
61 °F

Passing clouds.


Feels Like: 61 °F
Forecast: 66 / 83 °F
Wind: 6 mph from Southeast

Location: Duesseldorf

Current Time: May 27, 2017 at 6:26:07 am

Latest Report: May 27, 2017 at 5:50 am


Visibility: N/A

Pressure: 30.09 "Hg

Humidity: 72%

Dew Point: 52 °F

Location of DinslakenLocation

Past Weather in Dinslaken — Graph

°F

Dinslaken Temperature Yesterday

Maximum temperature yesterday: 81 °F (at 4:20 pm)
Minimum temperature yesterday: 50 °F (at 5:20 am)
Average temperature yesterday: 67 °F

High & Low Weather Summary for the Past Weeks

 TemperatureHumidityPressure
High84 °F (May 17, 4:20 pm)100% (May 14, 3:20 am)30.42 "Hg (May 14, 3:20 am)
Low46 °F (May 15, 6:50 am)23% (May 15, 7:20 pm)29.50 "Hg (May 12, 5:20 am)
Average64 °F64%30.09 "Hg
* Reported May 12 5:20 am — May 27 5:20 am, Dinslaken. Weather by CustomWeather, © 2017

Note: Actual official high and low records may vary slightly from our data, if they occured in-between our weather recording intervals... More about our weather records

Advertising

Dinslaken Weather History for the Previous 24 Hours

Scroll right to see more
 ConditionsComfort  
Time TempWeatherWind HumidityBarometerVisibility
5:20 am
Sat, May 27
61 °FClear.6 mph72%30.07 "Hg10 mi
4:50 am61 °FClear.5 mph72%30.07 "Hg10 mi
4:20 am59 °FClear.6 mph77%30.07 "Hg10 mi
3:50 am63 °FClear.5 mph68%30.07 "Hg10 mi
3:20 am64 °FClear.6 mph64%30.07 "Hg10 mi
2:50 am66 °FClear.9 mph60%30.07 "Hg10 mi
2:20 am64 °FClear.8 mph64%30.07 "Hg10 mi
1:50 am64 °FClear.9 mph68%30.07 "Hg10 mi
1:20 am64 °FClear.9 mph68%30.09 "Hg10 mi
12:50 am63 °FClear.8 mph73%30.09 "Hg10 mi
12:20 am63 °FClear.8 mph73%30.09 "Hg10 mi
11:50 pm
Fri, May 26
64 °FClear.7 mph68%30.09 "Hg10 mi
11:20 pm68 °FClear.8 mph60%30.09 "Hg10 mi
10:50 pm68 °FClear.10 mph60%30.09 "Hg10 mi
10:20 pm70 °FClear.10 mph57%30.09 "Hg10 mi
9:50 pm72 °FClear.10 mph53%30.07 "Hg10 mi
9:20 pm72 °FSunny.10 mph53%30.07 "Hg10 mi
8:50 pm73 °FSunny.12 mph50%30.07 "Hg10 mi
8:20 pm77 °FSunny.14 mph44%30.07 "Hg10 mi
7:50 pm77 °FPassing clouds.12 mph44%30.07 "HgN/A
6:50 pm81 °FPassing clouds.14 mph42%30.07 "HgN/A
5:20 pm81 °FPassing clouds.13 mph39%30.09 "HgN/A
4:50 pm81 °FPassing clouds.10 mph39%30.09 "HgN/A
4:20 pm81 °FPassing clouds.9 mph37%30.09 "HgN/A
3:50 pm79 °FSunny.6 mph39%30.09 "Hg10 mi
3:20 pm79 °FPassing clouds.12 mph39%30.12 "HgN/A
2:50 pm79 °FPassing clouds.10 mph42%30.12 "HgN/A
2:20 pm79 °FPassing clouds.9 mph39%30.15 "HgN/A
1:50 pm79 °FPassing clouds.8 mph39%30.15 "HgN/A
1:20 pm77 °FPassing clouds.9 mph42%30.15 "HgN/A
12:50 pm77 °FSunny.7 mph42%30.15 "Hg10 mi
12:20 pm75 °FPassing clouds.8 mph44%30.18 "HgN/A
11:50 am73 °FPassing clouds.6 mph50%30.18 "HgN/A
11:20 am72 °FPassing clouds.5 mph53%30.18 "HgN/A
10:50 am70 °FPassing clouds.5 mph57%30.18 "HgN/A
10:20 am70 °FPassing clouds.6 mph60%30.21 "HgN/A
9:50 am68 °FPassing clouds.6 mph60%30.21 "HgN/A
9:20 am66 °FSunny.5 mph68%30.21 "Hg10 mi
8:50 am64 °FPassing clouds.5 mph73%30.21 "HgN/A
8:20 am64 °FPassing clouds.3 mph73%30.21 "HgN/A
7:50 am61 °FSunny.3 mph83%30.21 "Hg10 mi
7:20 am59 °FSunny.2 mph82%30.21 "Hg10 mi
6:50 am55 °FSunny.3 mph94%30.21 "Hg10 mi
6:20 am54 °FFog.2 mph94%30.21 "HgN/A
Weather by CustomWeather, © 2017

See weather overviewHow to use our weather pages